Home   Weather   Gonaïves   Past weeks

Flag for Haiti Past Weather in Gonaïves, Haiti — Yesterday and Last 2 Weeks

Now
66 °F

Passing clouds.


Feels Like: 66 °F
Forecast: 70 / 90 °F
Wind: No wind

Location: Santiago

Current Time: Feb 27, 2017 at 4:06:48 am

Latest Report: Feb 27, 2017 at 3:00 am


Visibility: N/A

Pressure: 30.04 "Hg

Humidity: 100%

Dew Point: 66 °F

Location of GonaïvesLocation

Past Weather in Gonaïves — Graph

°F

Gonaïves Temperature Yesterday

Maximum temperature yesterday: 88 °F (at 1:00 pm)
Minimum temperature yesterday: 66 °F (at 6:00 am)
Average temperature yesterday: 77 °F

High & Low Weather Summary for the Past Weeks

 TemperatureHumidityPressure
High88 °F (Feb 24, 2:00 pm)100% (Feb 12, 5:00 am)30.12 "Hg (Feb 12, 5:00 am)
Low64 °F (Feb 19, 6:00 am)45% (Feb 14, 3:00 pm)29.74 "Hg (Feb 23, 3:00 pm)
Average75 °F78%29.97 "Hg
* Reported Feb 12 3:00 am — Feb 27 3:00 am, Gonaïves, Weather by CustomWeather, © 2017

Note: Actual official high and low records may vary slightly from our data, if they occured in-between our weather recording intervals... More about our weather records

Advertising

Gonaïves Weather History for the Previous 24 Hours

Scroll right to see more
 ConditionsComfort  
Time TempWeatherWind HumidityBarometerVisibility
3:00 am
Mon, Feb 27
66 °FPassing clouds.No wind100%30.04 "HgN/A
2:00 am68 °FPassing clouds.No wind94%30.07 "HgN/A
1:00 am70 °FPassing clouds.No wind94%30.09 "HgN/A
12:00 am72 °FPassing clouds.6 mph88%30.09 "HgN/A
10:00 pm
Sun, Feb 26
73 °FPassing clouds.6 mph83%30.09 "HgN/A
9:00 pm75 °FPassing clouds.6 mph74%30.09 "HgN/A
8:00 pm75 °FPassing clouds.8 mph74%30.07 "HgN/A
7:00 pm77 °FPassing clouds.9 mph69%30.04 "HgN/A
6:00 pm81 °FPassing clouds.13 mph62%30.01 "HgN/A
5:00 pm84 °FPassing clouds.14 mph51%29.98 "HgN/A
4:00 pm84 °FScattered clouds.16 mph55%29.98 "HgN/A
3:00 pm88 °FScattered clouds.14 mph46%29.98 "HgN/A
2:00 pm84 °FScattered clouds.10 mph58%29.98 "HgN/A
1:00 pm88 °FPassing clouds.18 mph46%30.04 "HgN/A
12:00 pm84 °FPassing clouds.6 mph55%30.04 "HgN/A
11:00 am84 °FPassing clouds.10 mph55%30.04 "HgN/A
10:00 am79 °FScattered clouds.8 mph74%30.07 "HgN/A
9:00 am77 °FBroken clouds.10 mph79%30.07 "HgN/A
8:00 am72 °FBroken clouds.7 mph88%30.04 "HgN/A
7:00 am68 °FScattered clouds.No wind94%30.04 "HgN/A
6:00 am66 °FPassing clouds.No wind100%30.01 "HgN/A
5:00 am68 °FPassing clouds.No wind94%30.01 "HgN/A
4:00 am70 °FPassing clouds.5 mph88%29.98 "HgN/A
Weather by CustomWeather, © 2017

See weather overviewHow to use our weather pages